Tracking 18784 objects as of 17-August-2017
HD Live streaming from Space Station
objects crossing your sky now

FLOCK 2K 16

Track FLOCK 2K 16 now!
10-day predictions
FLOCK 2K 16 is classified as:


NORAD ID: 42889
Int'l Code: 2017-042BS
Perigee: 462.9 km
Apogee: 483.9 km
Inclination: 97.0 °
Period: 93.9 minutes
Semi major axis: 6844 km
RCS: Unknown
Launch date: July 14, 2017
Source: United States (US)
Launch site: TYURATAM MISSILE AND SPACE COMPLEX (TTMTR)
Your satellite tracking list
Your tracking list is empty





NASA's NSSDC Master Catalog

Two Line Element Set (TLE):
1 42889U 17042BS  17229.40700394  .00001792  00000-0  57936-4 0  9996
2 42889  96.9999 136.6107 0015394 113.5030 246.7833 15.33204347  5036
Source of the keplerian elements: AFSPC